When you browse on this site, cookies collect data to enhance your experience and personalize the content and advertising you see.
Visit our Privacy Policy to learn more. By continuing to use the site, you agree to this use of cookies and data.

Tiempo cada hora Igualada

Hoy, 18 Septiembre, Viernes

Tiempo Temperatura Precipitaciones Viento Presión Humedad
00:00 +25°C° 0 mm 1 mps 732 mmHg 54%
01:00 +25°C° 0 mm 1 mps 732 mmHg 55%
02:00 +24°C° 0 mm 1 mps 731 mmHg 56%
03:00 +24°C° 0 mm 1 mps 731 mmHg 58%
04:00 +24°C° 0 mm 1 mps 731 mmHg 60%
05:00 +24°C° 0 mm 1 mps 732 mmHg 62%
06:00 +24°C° 0 mm 1 mps 732 mmHg 65%
07:00 +24°C° 0.1 mm 1 mps 732 mmHg 64%
08:00 +25°C° 0.1 mm 1 mps 732 mmHg 63%
09:00 +25°C° 0.1 mm 2 mps 732 mmHg 62%
10:00 +25°C° 0.2 mm 2 mps 732 mmHg 62%
11:00 +25°C° 0.2 mm 2 mps 732 mmHg 63%
12:00 +26°C° 0.2 mm 2 mps 732 mmHg 63%
13:00 +26°C° 0.4 mm 2 mps 732 mmHg 60%
14:00 +27°C° 0.4 mm 3 mps 732 mmHg 58%
15:00 +28°C° 0.4 mm 3 mps 731 mmHg 55%
16:00 +26°C° 0.9 mm 3 mps 731 mmHg 61%
17:00 +25°C° 0.9 mm 2 mps 731 mmHg 68%
18:00 +24°C° 0.9 mm 2 mps 731 mmHg 74%
19:00 +24°C° 0.3 mm 2 mps 731 mmHg 76%
20:00 +23°C° 0.3 mm 2 mps 731 mmHg 77%
21:00 +23°C° 0.3 mm 2 mps 732 mmHg 78%
22:00 +21°C° 0.5 mm 2 mps 731 mmHg 81%
23:00 +21°C° 0.5 mm 2 mps 731 mmHg 83%

Mañana, 19 Septiembre, Sábado

Tiempo Temperatura Precipitaciones Viento Presión Humedad
00:00 +21°C° 0.5 mm 2 mps 731 mmHg 85%
01:00 +22°C° 1 mm 1 mps 730 mmHg 86%
02:00 +21°C° 1 mm 1 mps 730 mmHg 87%
03:00 +21°C° 1 mm 1 mps 730 mmHg 88%
04:00 +21°C° 0.7 mm 1 mps 730 mmHg 87%
05:00 +21°C° 0.7 mm 1 mps 730 mmHg 86%
06:00 +21°C° 0.7 mm 1 mps 730 mmHg 85%
07:00 +22°C° 0.1 mm 1 mps 730 mmHg 75%
08:00 +24°C° 0.1 mm 2 mps 731 mmHg 64%
09:00 +25°C° 0.1 mm 3 mps 731 mmHg 53%
10:00 +26°C° 0 mm 3 mps 731 mmHg 48%
11:00 +27°C° 0 mm 4 mps 730 mmHg 44%
12:00 +28°C° 0 mm 4 mps 730 mmHg 39%
13:00 +28°C° 0 mm 5 mps 730 mmHg 40%
14:00 +27°C° 0 mm 5 mps 730 mmHg 40%
15:00 +27°C° 0 mm 5 mps 729 mmHg 40%
16:00 +26°C° 0 mm 4 mps 729 mmHg 44%
17:00 +25°C° 0 mm 4 mps 729 mmHg 47%
18:00 +24°C° 0 mm 3 mps 729 mmHg 51%
19:00 +24°C° 0 mm 3 mps 730 mmHg 52%
20:00 +22°C° 0 mm 3 mps 730 mmHg 54%
21:00 +23°C° 0 mm 2 mps 731 mmHg 56%
22:00 +23°C° 0 mm 2 mps 730 mmHg 56%
23:00 +21°C° 0 mm 2 mps 730 mmHg 57%

Pasado mañana, 20 Septiembre, Domingo

Tiempo Temperatura Precipitaciones Viento Presión Humedad
00:00 +21°C° 0 mm 2 mps 730 mmHg 58%
01:00 +21°C° 0 mm 2 mps 730 mmHg 60%
02:00 +20°C° 0 mm 2 mps 730 mmHg 62%
03:00 +20°C° 0 mm 2 mps 730 mmHg 63%
04:00 +20°C° 0 mm 2 mps 730 mmHg 65%
05:00 +19°C° 0 mm 2 mps 730 mmHg 66%
06:00 +19°C° 0 mm 3 mps 731 mmHg 68%
07:00 +21°C° 0 mm 3 mps 731 mmHg 62%
08:00 +22°C° 0 mm 3 mps 731 mmHg 57%
09:00 +25°C° 0 mm 3 mps 731 mmHg 51%
10:00 +26°C° 0 mm 3 mps 731 mmHg 47%
11:00 +27°C° 0 mm 3 mps 731 mmHg 43%
12:00 +28°C° 0 mm 3 mps 731 mmHg 39%
13:00 +28°C° 0 mm 4 mps 731 mmHg 38%
14:00 +29°C° 0 mm 4 mps 731 mmHg 37%
15:00 +29°C° 0 mm 4 mps 731 mmHg 36%
16:00 +28°C° 0 mm 3 mps 731 mmHg 41%
17:00 +26°C° 0 mm 3 mps 731 mmHg 46%
18:00 +25°C° 0 mm 2 mps 731 mmHg 52%
19:00 +24°C° 0 mm 2 mps 731 mmHg 56%
20:00 +23°C° 0 mm 2 mps 731 mmHg 61%
21:00 +23°C° 0 mm 1 mps 732 mmHg 65%
22:00 +22°C° 0 mm 1 mps 731 mmHg 66%
23:00 +22°C° 0 mm 1 mps 731 mmHg 67%

21 Septiembre, Lunes

Tiempo Temperatura Precipitaciones Viento Presión Humedad
00:00 +22°C° 0 mm 1 mps 731 mmHg 68%
01:00 +22°C° 0 mm 1 mps 731 mmHg 68%
02:00 +21°C° 0 mm 1 mps 731 mmHg 68%
03:00 +21°C° 0 mm 1 mps 731 mmHg 68%
04:00 +21°C° 0 mm 1 mps 731 mmHg 67%
05:00 +21°C° 0 mm 1 mps 731 mmHg 67%
06:00 +21°C° 0 mm 1 mps 731 mmHg 67%
07:00 +22°C° 0 mm 1 mps 731 mmHg 61%
08:00 +24°C° 0 mm 1 mps 731 mmHg 55%
09:00 +24°C° 0 mm 0 mps 732 mmHg 49%
10:00 +26°C° 0 mm 1 mps 731 mmHg 47%
11:00 +27°C° 0 mm 2 mps 731 mmHg 44%
12:00 +28°C° 0 mm 3 mps 731 mmHg 41%
13:00 +28°C° 0 mm 3 mps 731 mmHg 42%
14:00 +28°C° 0 mm 3 mps 731 mmHg 43%
15:00 +28°C° 0 mm 3 mps 730 mmHg 44%
16:00 +27°C° 0 mm 3 mps 730 mmHg 49%
17:00 +26°C° 0 mm 2 mps 730 mmHg 55%
18:00 +24°C° 0 mm 2 mps 730 mmHg 61%
19:00 +24°C° 0 mm 2 mps 730 mmHg 63%
20:00 +23°C° 0 mm 1 mps 730 mmHg 66%
21:00 +21°C° 0 mm 0 mps 730 mmHg 69%
22:00 +20°C° 0 mm 0 mps 730 mmHg 70%
23:00 +20°C° 0 mm 0 mps 730 mmHg 70%

22 Septiembre, Martes

Tiempo Temperatura Precipitaciones Viento Presión Humedad
00:00 +20°C° 0 mm 0 mps 730 mmHg 71%
01:00 +20°C° 0 mm 0 mps 729 mmHg 72%
02:00 +19°C° 0 mm 0 mps 729 mmHg 72%
03:00 +21°C° 0 mm 1 mps 729 mmHg 72%
04:00 +19°C° 0.2 mm 0 mps 729 mmHg 73%
05:00 +19°C° 0.2 mm 0 mps 729 mmHg 73%
06:00 +19°C° 0.2 mm 0 mps 729 mmHg 74%
07:00 +20°C° 0.2 mm 0 mps 730 mmHg 70%
08:00 +23°C° 0.2 mm 1 mps 730 mmHg 65%
09:00 +24°C° 0.2 mm 1 mps 730 mmHg 61%
10:00 +25°C° 0.1 mm 1 mps 730 mmHg 56%
11:00 +26°C° 0.1 mm 2 mps 730 mmHg 50%
12:00 +28°C° 0.1 mm 3 mps 730 mmHg 45%
13:00 +27°C° 0.4 mm 3 mps 730 mmHg 45%
14:00 +27°C° 0.4 mm 3 mps 730 mmHg 45%
15:00 +27°C° 0.4 mm 3 mps 729 mmHg 45%
16:00 +26°C° 0.1 mm 3 mps 729 mmHg 50%
17:00 +25°C° 0.1 mm 3 mps 729 mmHg 56%
18:00 +24°C° 0.1 mm 3 mps 729 mmHg 61%
19:00 +23°C° 0.2 mm 2 mps 730 mmHg 65%
20:00 +23°C° 0.2 mm 2 mps 730 mmHg 69%
21:00 +22°C° 0.2 mm 1 mps 730 mmHg 73%
22:00 +22°C° 0.2 mm 1 mps 730 mmHg 75%
23:00 +21°C° 0.2 mm 1 mps 730 mmHg 77%

23 Septiembre, Miércoles

Tiempo Temperatura Precipitaciones Viento Presión Humedad
00:00 +21°C° 0.2 mm 1 mps 730 mmHg 78%
01:00 +21°C° 0.1 mm 1 mps 729 mmHg 78%
02:00 +20°C° 0.1 mm 1 mps 729 mmHg 78%
03:00 +20°C° 0.1 mm 1 mps 729 mmHg 78%
04:00 +20°C° 0 mm 1 mps 729 mmHg 77%
05:00 +20°C° 0 mm 1 mps 729 mmHg 76%
06:00 +18°C° 0 mm 0 mps 729 mmHg 75%
07:00 +19°C° 0 mm 0 mps 729 mmHg 68%
08:00 +21°C° 0 mm 0 mps 730 mmHg 61%
09:00 +22°C° 0 mm 0 mps 730 mmHg 55%
10:00 +25°C° 0 mm 1 mps 730 mmHg 51%
11:00 +26°C° 0 mm 2 mps 729 mmHg 48%
12:00 +27°C° 0 mm 2 mps 729 mmHg 44%
13:00 +27°C° 0.6 mm 3 mps 729 mmHg 47%
14:00 +27°C° 0.6 mm 3 mps 728 mmHg 49%
15:00 +26°C° 0.6 mm 3 mps 728 mmHg 52%
16:00 +25°C° 0.6 mm 3 mps 728 mmHg 56%
17:00 +25°C° 0.6 mm 3 mps 728 mmHg 60%
18:00 +24°C° 0.6 mm 2 mps 728 mmHg 64%
19:00 +23°C° 0.5 mm 2 mps 728 mmHg 67%
20:00 +23°C° 0.5 mm 2 mps 728 mmHg 70%
21:00 +22°C° 0.5 mm 1 mps 728 mmHg 72%
22:00 +22°C° 0.5 mm 1 mps 728 mmHg 73%
23:00 +22°C° 0.5 mm 1 mps 727 mmHg 73%
Mostrar más